Dewpoint
64 67 70 68 67 66 66 68 70 70 70 70 70 71 71 70 70 70 70 69 68 68 68 67 67 67 67 67 66 65 65 65 65 63 64 67 66 67 69 68 68 68 68
67 67 66 65 65 65 65 65 66 67 70 70 71 70 71 70 70 70 69 69 68 67 67 67 67 68 66 66 66 65 64 64 63 61 62 66 66 67 67 67 66 66 66
67 66 64 65 63 64 64 66 66 67 67 67 69 70 70 70 70 70 70 69 68 68 67 67 67 66 66 65 65 65 65 65 64 63 62 64 64 65 66 67 66 65 65
67 65 64 64 62 63 63 65 66 68 68 68 67 68 69 70 70 69 69 68 68 68 67 67 67 66 66 66 66 66 66 66 66 65 65 63 64 66 66 64 64 65 64
64 64 63 63 64 64 64 64 66 67 66 66 66 67 68 69 70 69 69 69 68 67 67 67 67 67 67 66 66 65 65 65 65 64 64 62 64 64 64 64 64 63 64
65 65 65 65 63 63 65 65 65 65 63 63 63 65 67 69 65 64 68 68 68 67 66 66 67 67 66 64 65 65 66 65 64 63 62 62 61 64 64 63 63 61 61
64 64 64 64 65 65 64 65 65 65 65 65 64 64 66 68 63 61 64 68 67 67 66 66 67 67 66 66 64 63 63 63 64 64 62 63 62 63 63 62 63 62 61
65 65 63 63 62 62 63 64 64 64 64 65 66 65 64 65 61 60 62 65 66 67 67 67 66 66 66 66 66 64 64 64 64 65 65 64 64 64 64 63 63 62 61
62 62 63 63 63 62 61 62 64 64 64 64 66 66 67 67 58 58 61 64 65 66 67 67 67 66 64 61 66 64 64 63 62 61 62 61 61 60 63 62 61 61 61
60 61 62 63 63 62 62 61 62 64 64 66 65 66 64 66 59 57 61 66 65 65 65 66 62 66 60 58 64 64 64 63 63 63 61 60 60 61 61 64 63 62 60
60 60 59 60 61 61 62 63 63 62 62 62 63 65 65 65 64 56 55 65 66 66 66 66 66 58 56 54 55 65 64 64 63 63 63 62 61 62 62 64 64 63 59
56 55 58 58 59 60 60 61 62 62 62 62 62 63 63 61 56 54 55 55 57 65 66 66 65 56 53 51 53 56 54 57 64 63 62 62 62 62 64 63 64 64 63
54 54 54 58 58 58 58 57 58 60 61 60 59 60 60 60 60 53 51 54 56 60 62 61 55 53 51 54 53 53 53 60 63 64 64 63 63 64 64 64 63 61 60
54 53 54 53 52 53 58 58 57 57 57 57 57 58 59 59 58 58 57 55 54 55 55 54 55 54 54 58 60 57 60 61 63 64 65 66 63 62 63 64 63 63 62
53 53 52 53 52 52 52 54 57 56 56 56 57 57 56 55 55 49 50 52 51 50 48 52 53 55 58 60 62 63 63 62 62 63 64 65 64 64 63 64 64 63 62
51 52 52 52 52 52 49 48 54 52 47 46 46 52 55 51 43 43 41 41 42 43 50 53 54 54 54 56 59 60 60 60 61 61 62 63 64 64 63 63 63 63 62
50 51 50 50 51 51 50 48 50 54 47 44 44 45 46 44 42 43 43 42 42 43 49 50 52 53 54 55 56 58 59 60 61 60 61 62 63 63 62 63 62 62 62
50 49 49 50 51 51 51 50 49 49 50 53 45 46 43 41 42 43 42 44 51 47 49 51 52 54 54 55 57 57 59 60 60 61 61 61 62 62 62 61 62 62 62
49 48 49 51 52 52 53 54 52 50 50 53 52 46 45 41 42 43 42 53 54 54 55 55 56 56 56 57 58 59 60 60 61 61 62 62 62 62 62 62 61 57 59
50 50 50 50 51 51 54 55 55 55 55 56 56 54 52 50 51 51 52 53 55 55 56 56 57 57 57 57 58 59 60 60 61 61 62 63 63 63 62 62 62 61 61
51 48 50 47 48 50 52 54 55 54 54 54 53 51 45 51 53 54 55 55 55 55 55 56 55 55 57 57 57 57 59 60 61 61 62 62 63 62 63 63 62 62 61
51 50 48 45 45 47 48 53 53 53 53 53 52 51 44 50 52 54 54 54 55 56 56 55 55 55 56 56 56 56 56 57 59 60 61 61 62 62 62 62 62 62 61
51 46 43 41 42 45 46 49 52 52 53 54 53 52 51 51 51 53 53 54 54 55 53 54 52 53 55 56 56 56 55 56 56 57 59 60 61 61 61 61 60 60 60
44 42 41 41 43 43 45 47 49 49 52 52 52 52 50 50 51 51 54 52 52 53 53 53 52 52 52 52 53 54 52 50 55 57 57 57 56 54 56 56 59 59 59
43 43 42 42 42 42 43 45 48 49 52 52 52 52 51 51 50 50 51 51 52 54 55 54 54 55 53 52 52 51 44 36 47 44 56 55 55 55 55 54 54 54 53
43 44 43 43 43 43 43 44 46 48 50 53 53 53 52 51 50 50 50 50 50 53 52 51 52 53 54 52 48 42 38 36 45 38 53 54 54 54 54 54 53 53 52
Lifted_Index
-1 -2 -2 -2 -3 -5 -5 -5 -5 -5 -6 -6 -5 -5 -5 -5 -4 -4 -4 -3 -3 -3 -3 -3 -3 -3 -3 -3 -3 -3 -3 -2 -2 -2 -1 0 0 0 -0 -1 -1 -1 -1
-1 -1 -1 -1 -2 -2 -3 -4 -5 -5 -5 -5 -5 -5 -5 -5 -4 -4 -4 -4 -4 -3 -3 -3 -3 -3 -3 -3 -3 -2 -2 -2 -2 -1 -1 -0 -0 -0 -1 -1 -1 -1 -1
-1 -1 -0 0 1 1 -0 -2 -3 -3 -4 -4 -4 -4 -4 -4 -4 -4 -4 -4 -4 -4 -4 -3 -3 -3 -3 -3 -3 -2 -2 -2 -1 -1 -1 -1 -1 -1 -1 -1 -1 -0 -0
-2 -2 -1 -0 1 2 2 1 -0 -1 -2 -3 -3 -3 -3 -3 -4 -4 -4 -4 -4 -4 -4 -3 -3 -3 -3 -3 -3 -2 -2 -2 -1 -1 -1 -1 -1 -1 -1 -1 -1 -0 0
-4 -3 -2 -1 -1 0 1 1 1 -0 -1 -1 -1 -1 -1 -2 -3 -3 -4 -4 -4 -4 -4 -3 -3 -3 -3 -3 -3 -2 -2 -2 -1 -1 -1 -1 -1 -1 -0 -0 -0 0 0
-4 -4 -3 -3 -2 -1 -1 -0 0 -0 -0 -0 0 1 1 -1 -2 -3 -3 -3 -4 -4 -4 -3 -3 -3 -3 -3 -3 -2 -2 -1 -1 -1 -1 -1 -1 -0 -0 -0 -0 0 0
-4 -4 -3 -3 -2 -2 -1 -1 -1 -0 -1 -1 0 2 1 -0 -1 -2 -2 -2 -3 -3 -3 -3 -3 -3 -3 -3 -3 -3 -2 -2 -2 -2 -1 -1 -1 -0 -0 -1 -1 -0 -0
-3 -3 -2 -2 -1 -1 -0 -0 -1 -1 -1 -1 -0 1 1 0 -1 -1 -1 -1 -2 -2 -3 -3 -3 -3 -3 -3 -3 -3 -3 -2 -2 -2 -2 -1 -1 -1 -1 -1 -1 -1 -1
-3 -2 -2 -2 -2 -1 -0 0 -0 -0 -1 -1 -1 -1 -0 -1 -1 -1 -1 -1 -1 -1 -2 -2 -3 -3 -3 -3 -3 -3 -3 -2 -2 -2 -2 -1 -1 -1 -1 -1 -1 -1 -1
-2 -2 -2 -2 -2 -1 -1 0 0 -0 -0 -1 -1 -1 -1 -1 -1 -1 -1 -1 -0 -1 -1 -2 -2 -2 -3 -3 -3 -3 -3 -2 -2 -2 -2 -1 -1 -1 -1 -1 -1 -0 -0
-0 -0 -0 -0 -0 -0 -0 -0 -0 -0 -0 -1 -1 -1 -1 -1 -1 -1 -1 -0 -1 -1 -1 -2 -2 -2 -2 -2 -2 -2 -2 -2 -2 -2 -2 -2 -2 -2 -1 -1 -0 -0 -0
2 2 2 2 2 1 1 0 0 0 0 -0 -0 -0 -1 -1 -1 -1 -0 -0 -0 -1 -1 -1 -2 -1 -1 -1 -1 -2 -2 -2 -2 -2 -2 -2 -2 -2 -1 -1 -0 -0 -0
3 3 3 3 3 2 2 1 1 1 1 1 1 1 1 0 -1 -1 -0 -0 -0 -0 -0 -1 -1 -1 -1 -1 -2 -2 -2 -2 -2 -2 -2 -2 -2 -2 -1 -1 -0 -0 0
5 4 4 4 4 3 3 2 2 2 2 2 2 2 2 2 1 1 0 1 1 1 1 1 1 0 -0 -1 -1 -2 -2 -2 -2 -2 -2 -2 -2 -2 -1 -1 -0 0 1
5 5 5 5 5 4 4 3 3 3 3 3 3 3 4 3 3 3 3 3 3 3 3 3 3 2 1 1 -0 -1 -1 -1 -1 -1 -1 -1 -1 -1 -1 -1 -0 0 1
6 5 5 5 5 5 5 4 3 3 2 2 3 3 3 3 3 4 5 5 5 5 4 4 4 3 3 2 1 0 -0 -0 -0 -1 -1 -0 -0 -0 -1 -0 -0 0 1
6 5 5 5 5 5 5 5 4 3 3 3 3 3 3 3 3 4 5 6 6 5 5 4 4 3 3 2 2 1 1 0 -0 0 0 0 1 1 1 1 1 0 0
6 5 5 4 4 4 4 4 4 4 4 4 3 3 3 3 3 4 5 6 6 6 5 5 4 4 3 3 2 2 1 1 1 1 1 1 1 1 1 1 1 1 0
5 5 5 4 4 4 3 3 3 3 3 3 3 2 2 3 3 4 5 5 5 5 5 5 5 5 4 4 3 2 2 2 1 1 1 1 2 1 1 1 1 1 1
5 5 5 5 5 4 4 3 3 3 3 2 2 2 2 3 3 4 5 5 5 5 5 6 6 5 5 4 3 3 2 2 2 1 1 2 2 1 1 1 1 1 1
5 5 5 5 5 5 5 4 3 3 3 3 3 3 3 3 3 4 4 4 4 4 5 5 5 5 5 4 3 3 3 2 2 2 2 2 2 2 2 2 2 2 1
5 5 5 5 5 5 5 5 4 4 4 4 3 3 3 3 4 4 4 3 3 3 3 4 4 5 4 4 3 3 3 2 2 2 2 2 2 2 2 2 2 2 2
5 5 5 5 5 5 6 5 5 4 4 4 3 3 3 3 4 4 3 3 2 2 2 2 3 4 4 4 4 3 3 3 2 2 2 2 2 2 2 2 2 2 2
5 5 6 6 6 6 5 5 5 4 4 4 3 3 3 3 3 3 2 2 2 1 1 1 2 3 3 3 4 4 4 4 3 3 3 2 2 2 2 2 2 2 1
5 5 6 6 6 6 5 5 5 4 4 3 3 3 3 3 3 2 2 2 2 1 1 1 1 2 2 3 3 4 4 4 4 4 3 3 3 3 3 3 2 2 2
4 5 5 6 6 6 5 4 4 4 4 3 2 2 3 3 3 2 2 1 2 1 1 1 1 1 1 2 2 3 3 4 4 4 4 4 4 4 4 3 3 3 4